�N����,����,�~����,�C��,���x,�C��,����,���ϕ���,�ő�u�ԕ���,�ő厞����,���˗�,�I�_���x,�n�����x,�ő啗���N��,DTYPE
"16/11/24","00:10",0.0,7.2,74.8,1012.1,318.6,2.6,4.0,319.4,0.00,3.1,11.9,"00:01:44",1
"16/11/24","00:20",0.0,7.2,75.0,1012.1,323.3,2.7,4.1,340.9,0.00,3.1,12.0,"00:14:48",1
"16/11/24","00:30",0.0,7.2,75.2,1012.1,324.3,2.8,3.9,330.6,0.00,3.1,11.7,"00:27:28",1
"16/11/24","00:40",0.0,7.2,75.8,1011.9,322.7,2.2,3.5,324.3,0.00,3.3,11.7,"00:32:08",1
"16/11/24","00:50",0.0,7.1,76.9,1011.9,325.1,2.1,3.5,325.4,0.00,3.4,12.0,"00:42:24",1
"16/11/24","01:00",0.0,7.1,77.2,1011.9,320.3,1.8,2.6,332.6,0.00,3.4,11.9,"00:50:32",1
"16/11/24","01:10",0.0,7.1,78.2,1011.9,296.7,1.3,2.4,310.9,0.00,3.6,11.8,"01:01:28",1
"16/11/24","01:20",0.0,7.0,78.9,1011.9,284.5,1.5,2.5,280.3,0.00,3.6,11.9,"01:13:20",1
"16/11/24","01:30",0.0,6.9,80.5,1011.6,283.9,1.8,2.7,309.7,0.00,3.8,11.7,"01:20:02",1
"16/11/24","01:40",0.0,6.9,81.8,1011.4,301.5,2.1,2.7,309.3,0.00,4.0,12.0,"01:33:20",1
"16/11/24","01:50",0.0,6.9,83.2,1011.2,304.1,1.8,2.8,316.9,0.00,4.3,11.9,"01:44:08",1
"16/11/24","02:00",0.0,6.7,84.2,1011.2,306.2,2.0,2.8,314.2,0.00,4.3,11.8,"01:52:32",1
"16/11/24","02:10",0.0,6.7,85.1,1010.9,297.1,1.7,2.0,307.2,0.00,4.4,12.1,"02:05:28",1
"16/11/24","02:20",0.0,6.7,85.9,1010.7,310.8,1.7,2.9,327.2,0.00,4.6,11.9,"02:16:24",1
"16/11/24","02:30",0.0,6.7,85.8,1010.9,316.3,2.5,3.3,320.7,0.00,4.5,11.9,"02:26:24",1
"16/11/24","02:40",0.0,6.7,85.7,1010.4,289.1,1.7,2.5,314.1,0.00,4.5,11.9,"02:39:36",1
"16/11/24","02:50",0.0,6.7,85.9,1010.4,311.0,2.3,2.8,320.2,0.00,4.6,11.9,"02:40:16",1
"16/11/24","03:00",0.0,6.8,85.7,1010.2,294.2,1.6,3.1,321.5,0.00,4.6,12.0,"02:50:08",1
"16/11/24","03:10",0.0,6.9,85.5,1010.4,311.7,1.6,2.4,318.8,0.00,4.7,11.7,"03:03:12",1
"16/11/24","03:20",0.0,7.0,85.6,1010.4,306.4,1.7,2.6,318.9,0.00,4.8,11.7,"03:11:52",1
"16/11/24","03:30",0.0,6.9,85.8,1010.4,327.5,1.8,2.4,331.9,0.00,4.7,11.9,"03:25:04",1
"16/11/24","03:40",0.0,7.0,86.3,1010.2,310.7,1.3,2.6,331.5,0.00,4.9,11.9,"03:31:04",1
"16/11/24","03:50",0.0,6.8,87.3,1010.0,318.1,2.2,2.7,321.9,0.00,4.9,11.9,"03:45:46",1
"16/11/24","04:00",0.0,6.7,88.8,1010.0,319.1,2.1,3.1,320.0,0.00,5.0,11.9,"03:59:14",1
"16/11/24","04:10",0.0,6.6,89.8,1010.0,324.3,2.1,3.6,322.9,0.00,5.1,11.8,"04:08:08",1
"16/11/24","04:20",0.0,6.4,90.8,1009.3,316.9,2.1,2.8,318.0,0.00,5.0,11.8,"04:10:16",1
"16/11/24","04:30",0.0,6.4,91.3,1009.3,312.8,1.8,2.5,324.1,0.00,5.1,11.9,"04:28:34",1
"16/11/24","04:40",0.0,6.3,91.8,1009.5,306.9,2.5,3.1,313.9,0.00,5.1,11.9,"04:35:30",1
"16/11/24","04:50",0.0,6.3,92.0,1008.8,293.0,1.7,1.9,284.4,0.00,5.1,11.7,"04:43:58",1
"16/11/24","05:00",0.0,6.3,92.0,1008.8,294.6,1.7,1.9,299.7,0.00,5.1,11.7,"04:52:54",1
"16/11/24","05:10",0.0,6.2,92.2,1009.0,301.5,2.1,2.8,311.7,0.00,5.1,11.7,"05:07:42",1
"16/11/24","05:20",0.0,6.2,92.1,1008.8,302.9,2.1,3.1,320.8,0.00,5.1,11.6,"05:15:26",1
"16/11/24","05:30",0.0,6.3,92.1,1008.8,296.4,1.8,2.6,310.4,0.00,5.2,11.7,"05:28:32",1
"16/11/24","05:40",0.0,6.3,91.9,1009.0,290.5,1.8,2.2,305.6,0.00,5.1,11.8,"05:32:38",1
"16/11/24","05:50",0.0,6.3,91.4,1008.8,302.3,2.1,2.7,322.8,0.00,5.0,11.7,"05:46:06",1
"16/11/24","06:00",0.0,6.4,91.0,1009.0,305.4,2.2,2.7,317.9,0.00,5.1,11.8,"05:50:52",1
"16/11/24","06:10",0.0,6.5,90.5,1009.3,307.3,2.2,2.6,326.3,0.00,5.1,11.7,"06:06:20",1
"16/11/24","06:20",0.0,6.5,89.5,1009.0,315.5,2.8,3.2,326.8,0.00,4.9,11.6,"06:18:44",1
"16/11/24","06:30",0.0,6.6,88.8,1009.0,313.8,2.1,2.2,319.7,0.00,4.9,11.8,"06:29:14",1
"16/11/24","06:40",0.0,6.6,88.1,1009.0,328.7,2.5,3.4,339.8,0.00,4.8,11.6,"06:39:24",1
"16/11/24","06:50",0.0,6.6,87.6,1009.3,323.3,2.5,4.0,339.5,0.00,4.7,11.5,"06:44:02",1
"16/11/24","07:00",0.0,6.7,86.9,1009.3,323.9,2.8,4.3,321.2,0.00,4.7,11.6,"06:58:08",1
"16/11/24","07:10",0.0,6.7,86.5,1009.3,316.6,3.0,4.3,331.1,0.00,4.6,11.7,"07:03:34",1
"16/11/24","07:20",0.0,6.7,86.2,1009.3,314.0,2.3,3.6,337.4,0.00,4.6,11.8,"07:18:00",1
"16/11/24","07:30",0.0,6.8,85.9,1009.5,318.5,2.5,3.7,335.0,0.00,4.6,11.7,"07:21:06",1
"16/11/24","07:40",0.0,6.9,85.8,1009.5,322.5,2.7,4.2,327.4,0.00,4.7,11.7,"07:32:58",1
"16/11/24","07:50",0.0,7.1,85.2,1009.7,324.7,2.8,4.2,338.6,0.01,4.8,11.5,"07:48:24",1
"16/11/24","08:00",0.0,7.2,85.1,1010.0,323.8,2.3,3.3,322.0,0.00,4.9,11.5,"07:52:08",1
"16/11/24","08:10",0.0,7.2,84.4,1009.7,324.0,2.6,3.7,338.4,0.00,4.8,11.6,"08:05:40",1
"16/11/24","08:20",0.0,7.3,83.8,1009.5,321.4,2.5,3.5,326.4,0.02,4.8,11.7,"08:12:56",1
"16/11/24","08:30",0.0,7.6,84.0,1010.0,324.6,2.0,2.9,329.7,0.05,5.1,11.7,"08:25:34",1
"16/11/24","08:40",0.0,8.1,83.6,1010.0,318.6,1.6,2.5,339.1,0.09,5.5,11.7,"08:37:44",1
"16/11/24","08:50",0.0,8.4,79.9,1010.0,329.9,1.8,2.7,338.8,0.10,5.2,11.7,"08:49:06",1
"16/11/24","09:00",0.0,8.7,79.0,1010.2,302.0,1.3,2.6,338.3,0.08,5.3,11.8,"08:51:44",1
"16/11/24","09:10",0.0,8.7,77.1,1010.2,311.7,1.6,3.1,346.8,0.10,5.0,11.8,"09:06:58",1
"16/11/24","09:20",0.0,9.1,76.6,1010.2,308.6,1.3,2.5,335.6,0.11,5.3,11.8,"09:15:14",1
"16/11/24","09:30",0.0,9.2,75.0,1010.7,315.0,0.7,1.2,307.4,0.14,5.0,11.9,"09:20:08",1
"16/11/24","09:40",0.0,9.5,74.5,1010.7,290.6,0.6,1.4,314.7,0.09,5.2,12.1,"09:34:24",1
"16/11/24","09:50",0.0,9.6,73.5,1010.7,315.8,1.0,1.9,329.3,0.13,5.1,12.1,"09:46:26",1
"16/11/24","10:00",0.0,10.1,71.0,1010.2,314.1,0.7,1.7,327.5,0.27,5.1,12.3,"09:53:52",1
"16/11/24","10:10",0.0,10.6,68.2,1010.7,306.9,1.0,1.9,330.2,0.35,5.0,12.4,"10:06:32",1
"16/11/24","10:20",0.0,11.3,69.4,1010.4,291.5,1.0,2.2,321.1,0.33,5.9,12.5,"10:12:32",1
"16/11/24","10:30",0.0,11.0,67.8,1010.2,234.3,1.3,2.6,216.3,0.33,5.3,12.7,"10:25:20",1
"16/11/24","10:40",0.0,11.5,65.6,1010.7,233.0,1.0,2.0,222.8,0.41,5.3,12.9,"10:37:20",1
"16/11/24","10:50",0.0,11.7,68.8,1010.4,220.2,1.3,2.9,223.5,0.36,6.2,13.0,"10:42:48",1
"16/11/24","11:00",0.0,11.0,70.8,1010.2,219.6,1.5,3.2,235.8,0.22,5.9,13.1,"10:55:12",1
"16/11/24","11:10",0.0,12.0,67.2,1009.7,196.6,1.2,2.8,197.2,0.38,6.2,13.1,"11:04:24",1
"16/11/24","11:20",0.0,12.2,67.3,1009.7,210.3,1.1,2.5,198.9,0.41,6.4,13.6,"11:12:56",1
"16/11/24","11:30",0.0,12.6,66.4,1009.3,212.3,1.0,2.5,149.3,0.39,6.6,13.5,"11:28:08",1
"16/11/24","11:40",0.0,12.4,66.1,1009.0,176.8,1.0,2.0,113.9,0.35,6.3,13.7,"11:32:48",1
"16/11/24","11:50",0.0,12.6,65.6,1009.3,191.1,1.2,3.5,195.2,0.31,6.4,14.0,"11:45:36",1
"16/11/24","12:00",0.0,12.9,64.6,1008.8,140.8,1.5,3.1,155.9,0.45,6.4,14.0,"11:56:56",1
"16/11/24","12:10",0.0,13.2,65.8,1008.8,188.1,1.2,2.5,200.5,0.35,7.0,14.1,"12:06:48",1
"16/11/24","12:20",0.0,13.6,64.8,1008.6,220.9,2.0,3.7,218.1,0.43,7.1,14.1,"12:12:48",1
"16/11/24","12:30",0.0,13.2,63.7,1008.3,242.5,1.8,4.4,227.5,0.23,6.5,14.4,"12:24:24",1
"16/11/24","12:40",0.0,12.7,65.2,1008.3,215.5,1.8,3.6,224.6,0.18,6.4,14.2,"12:39:44",1
"16/11/24","12:50",0.0,13.3,60.2,1008.6,188.6,1.1,2.2,207.9,0.31,5.8,14.5,"12:40:48",1
"16/11/24","13:00",0.0,14.4,60.0,1007.8,282.5,0.8,2.6,126.8,0.46,6.8,14.6,"12:54:24",1
"16/11/24","13:10",0.0,14.3,59.7,1008.3,210.7,1.6,3.6,216.7,0.33,6.6,14.7,"13:09:20",1
"16/11/24","13:20",0.0,13.4,59.9,1008.3,224.8,2.0,4.4,220.0,0.08,5.8,14.7,"13:10:40",1
"16/11/24","13:30",0.0,13.3,59.7,1008.1,251.9,1.3,3.4,229.4,0.09,5.7,14.6,"13:29:12",1
"16/11/24","13:40",0.0,13.1,59.5,1008.1,251.3,1.1,2.4,233.4,0.06,5.4,14.6,"13:31:04",1
"16/11/24","13:50",0.0,13.0,61.7,1008.1,351.7,1.0,2.4,342.9,0.02,5.9,14.8,"13:49:44",1
"16/11/24","14:00",0.0,12.7,63.3,1008.1,21.2,1.0,2.6,12.8,0.02,6.0,14.7,"13:52:24",1
"16/11/24","14:10",0.0,12.7,64.1,1008.1,21.4,0.8,2.0,10.3,0.04,6.1,14.6,"14:08:16",1
"16/11/24","14:20",0.0,12.7,63.2,1008.3,27.6,1.1,2.9,9.4,0.05,5.9,14.5,"14:18:24",1
"16/11/24","14:30",0.0,12.7,62.2,1008.6,349.1,2.1,4.8,342.4,0.04,5.7,14.5,"14:27:28",1
"16/11/24","14:40",0.0,12.9,62.2,1008.6,324.4,2.1,3.7,330.8,0.08,5.9,14.6,"14:37:28",1
"16/11/24","14:50",0.0,13.1,61.4,1008.3,339.8,1.3,2.1,340.2,0.11,5.9,14.4,"14:44:08",1
"16/11/24","15:00",0.0,13.2,61.2,1008.8,337.2,1.5,2.8,342.0,0.07,5.9,14.3,"14:54:32",1
"16/11/24","15:10",0.0,13.0,61.8,1008.8,339.9,1.6,3.7,343.7,0.08,5.9,14.3,"15:09:20",1
"16/11/24","15:20",0.0,12.6,63.0,1009.0,328.1,1.8,3.4,331.9,0.05,5.8,14.4,"15:11:36",1
"16/11/24","15:30",0.0,12.4,63.1,1009.0,333.7,1.8,2.9,336.7,0.05,5.6,14.2,"15:21:44",1
"16/11/24","15:40",0.0,12.2,65.3,1009.0,324.2,1.7,2.6,344.3,0.03,5.9,14.3,"15:30:16",1
"16/11/24","15:50",0.0,12.1,65.3,1009.0,326.8,2.0,5.0,349.6,0.03,5.8,14.3,"15:47:20",1
"16/11/24","16:00",0.0,12.3,64.0,1009.3,323.6,2.1,5.0,351.7,0.05,5.7,14.3,"15:57:04",1
"16/11/24","16:10",0.0,12.1,63.9,1009.5,329.1,2.1,3.7,351.9,0.03,5.5,14.0,"16:03:44",1
"16/11/24","16:20",0.0,11.5,65.7,1009.5,335.3,2.3,5.1,332.9,0.00,5.4,14.1,"16:18:16",1
"16/11/24","16:30",0.0,11.0,66.9,1009.7,338.2,2.3,4.7,344.1,0.00,5.1,13.8,"16:26:56",1
"16/11/24","16:40",0.0,10.7,68.1,1009.7,340.1,1.8,4.4,351.0,0.00,5.1,13.7,"16:30:24",1
"16/11/24","16:50",0.0,10.4,69.8,1010.0,339.1,2.1,3.5,335.9,0.00,5.2,13.7,"16:40:16",1
"16/11/24","17:00",0.0,10.1,70.7,1010.2,344.7,1.8,3.4,340.8,0.00,5.1,13.7,"16:50:50",1
"16/11/24","17:10",0.0,10.0,71.7,1010.0,348.5,2.0,3.6,353.6,0.00,5.2,13.5,"17:05:32",1
"16/11/24","17:20",0.0,9.7,72.1,1010.0,350.3,1.8,4.0,329.7,0.00,5.0,13.4,"17:13:22",1
"16/11/24","17:30",0.0,9.6,72.3,1010.4,331.9,2.2,4.5,345.8,0.00,4.9,13.2,"17:25:34",1
"16/11/24","17:40",0.0,9.0,73.6,1010.7,324.1,1.5,3.1,332.6,0.00,4.6,13.2,"17:34:48",1
"16/11/24","17:50",0.0,9.0,73.8,1010.4,346.6,1.5,2.6,1.6,0.00,4.6,13.1,"17:41:00",1
"16/11/24","18:00",0.0,8.9,74.1,1011.2,327.5,1.6,3.4,344.8,0.00,4.6,13.1,"17:59:00",1
"16/11/24","18:10",0.0,8.3,76.5,1011.4,336.5,1.8,3.3,321.4,0.00,4.5,12.9,"18:05:36",1
"16/11/24","18:20",0.0,7.9,78.5,1010.7,327.0,1.5,3.3,321.9,0.00,4.4,13.0,"18:17:12",1
"16/11/24","18:30",0.0,7.4,79.9,1011.4,311.3,2.1,3.2,314.9,0.00,4.2,12.8,"18:20:08",1
"16/11/24","18:40",0.0,6.9,82.5,1011.2,306.6,2.2,3.3,315.4,0.00,4.2,12.5,"18:31:04",1
"16/11/24","18:50",0.0,7.0,83.3,1011.6,305.3,2.0,2.9,318.0,0.00,4.4,12.7,"18:42:16",1
"16/11/24","19:00",0.0,6.5,84.7,1011.6,294.0,1.8,2.7,315.3,0.00,4.2,12.5,"18:53:52",1
"16/11/24","19:10",0.0,6.2,86.7,1011.9,303.9,1.2,2.7,320.7,0.00,4.2,12.3,"19:04:24",1
"16/11/24","19:20",0.0,6.0,88.1,1011.2,307.3,1.8,2.9,319.3,0.00,4.2,12.5,"19:12:48",1
"16/11/24","19:30",0.0,5.8,88.8,1011.4,295.1,1.7,2.6,309.9,0.00,4.1,12.3,"19:24:48",1
"16/11/24","19:40",0.0,5.7,89.6,1011.9,298.5,1.5,2.1,323.6,0.00,4.2,12.2,"19:36:16",1
"16/11/24","19:50",0.0,5.4,90.5,1011.4,301.5,2.0,2.5,310.0,0.00,4.0,12.1,"19:45:04",1
"16/11/24","20:00",0.0,5.2,91.3,1011.4,292.0,1.2,2.1,305.5,0.00,3.9,12.2,"19:54:08",1
"16/11/24","20:10",0.0,5.1,91.9,1011.6,305.8,2.0,2.9,311.5,0.00,3.9,11.9,"20:09:04",1
"16/11/24","20:20",0.0,5.1,92.6,1011.6,288.5,1.6,2.2,319.8,0.00,4.0,11.7,"20:18:16",1
"16/11/24","20:30",0.0,5.1,93.2,1011.4,305.1,2.0,3.1,309.6,0.00,4.1,11.9,"20:20:02",1
"16/11/24","20:40",0.0,5.4,93.4,1011.6,297.4,2.0,3.4,310.4,0.00,4.5,11.7,"20:30:08",1
"16/11/24","20:50",0.0,5.5,93.0,1011.4,289.4,2.1,2.9,306.7,0.00,4.5,11.8,"20:48:48",1
"16/11/24","21:00",0.0,5.6,92.8,1011.4,299.9,2.1,3.5,319.5,0.00,4.6,11.5,"20:50:02",1
"16/11/24","21:10",0.0,5.8,92.4,1011.6,308.9,2.7,3.9,323.3,0.00,4.7,11.7,"21:00:32",1
"16/11/24","21:20",0.0,6.0,91.7,1012.1,320.1,1.8,3.3,306.5,0.00,4.8,11.5,"21:10:08",1
"16/11/24","21:30",0.0,6.3,90.5,1012.6,328.5,1.5,3.1,329.3,0.00,4.9,11.5,"21:22:40",1
"16/11/24","21:40",0.0,6.1,89.4,1012.8,305.5,2.0,3.2,331.5,0.00,4.5,11.5,"21:34:56",1
"16/11/24","21:50",0.0,5.5,89.8,1012.6,283.6,1.5,2.0,309.9,0.00,4.0,11.3,"21:40:16",1
"16/11/24","22:00",0.0,5.2,90.7,1012.6,297.8,1.8,2.9,306.5,0.00,3.8,11.5,"21:57:44",1
"16/11/24","22:10",0.0,4.9,90.9,1012.8,274.0,0.8,1.9,303.7,0.00,3.6,11.5,"22:00:56",1
"16/11/24","22:20",0.0,4.9,92.3,1012.6,301.7,2.1,3.4,323.9,0.00,3.8,11.2,"22:16:16",1
"16/11/24","22:30",0.0,4.9,91.9,1013.3,312.9,0.8,2.7,329.7,0.00,3.7,11.4,"22:20:08",1
"16/11/24","22:40",0.0,4.5,92.3,1012.6,302.8,1.7,2.8,333.7,0.00,3.4,11.2,"22:34:08",1
"16/11/24","22:50",0.0,4.2,92.9,1012.6,287.2,1.3,2.2,326.1,0.00,3.2,11.2,"22:47:52",1
"16/11/24","23:00",0.0,4.0,93.5,1012.6,313.5,1.1,2.2,309.2,0.00,3.1,11.2,"22:51:52",1
"16/11/24","23:10",0.0,4.3,94.6,1012.6,319.2,2.6,4.1,335.1,0.00,3.6,11.2,"23:03:44",1
"16/11/24","23:20",0.0,4.5,94.3,1012.6,311.3,2.1,3.7,341.7,0.00,3.7,10.9,"23:18:48",1
"16/11/24","23:30",0.0,4.7,94.2,1012.3,324.3,2.5,3.5,338.5,0.00,3.9,11.1,"23:28:08",1
"16/11/24","23:40",0.0,4.8,93.5,1012.3,314.9,2.5,4.1,327.7,0.00,3.9,11.0,"23:34:00",1
"16/11/24","23:50",0.0,4.6,93.3,1012.3,315.2,2.3,2.9,322.1,0.00,3.7,11.0,"23:42:08",1
"16/11/24","24:00",0.0,4.4,93.2,1012.6,304.2,1.7,2.5,326.7,0.00,3.4,10.7,"23:59:36",1
